INTELSAT 30 (IS-30) (40271 NORAD) Tracking and Keplerian Element Data

This shows tracking and keplerian element data for the satellite.

Feedback or suggestion? Click here.




ElementValue
Catalog40271
NameINTELSAT 30 (IS-30)
Epoch Orbit2547
Epoch Day270.10339562
Epoch Year2021
RAAN244.1875
Inclination0.0121
Eccentricity0.0001966
Argument of Perigee188.5573
Mean Anonmoly235.5497
Mean Motion1.00272372
Decay Rate-1.52E-06
L11 40271U 14062A 21270.10339562 -.00000152 00000-0 00000+0 0 9996
L22 40271 0.0121 244.1875 0001966 188.5573 235.5497 1.00272372 25477

Live tracking and technical data element details for INTELSAT 30 (IS-30) (NORAD 40271). INTELSAT 30 (IS-30) can be tracked NOW for your location showing map with azimuth and elevation plus other details from your city location.

Track the satellite on the map from your city or location and see movement details for azimuth, elevation, latitude, longitude, range, height, and movement on the map or in text.







IsCatalogInMostPopularTable: catalog: 40271, numindb: 632
Update: records affected: 1



GetName: 40271 INTELSAT 30 (IS-30)

Hit Count: updated at: Tue, 28 Sep 2021 16:04:18 GMT